EW7678 Weather Reports


Display with metric or nautical units.
time (UTC)temp
F
wind
direction
speed
MPH
gust
MPH
rain 1hr
in
rain 24hr
in
rain mn
in
humidity
%
barometer
mb
20200117223122 14 321 0.0 3.0 0.00 0.00 0.00 81 1025.5
20200117221600 14 51 0.0 3.0 0.00 0.00 0.00 81 1025.5
20200117220257 14 341 0.0 2.0 0.00 0.00 0.00 80 1025.2
20200117214551 15 306 0.0 2.0 0.00 0.00 0.00 80 1025.1
20200117213140 15 333 0.0 2.0 0.00 0.00 0.00 80 1025.0
20200117211555 15 52 0.0 2.0 0.00 0.00 0.00 80 1024.9
20200117210033 14 102 0.0 2.0 0.00 0.00 0.00 81 1024.9
20200117204527 14 329 0.0 2.0 0.00 0.00 0.00 80 1024.9
20200117203137 14 293 0.0 3.0 0.00 0.00 0.00 81 1024.9
20200117201531 13 295 0.0 2.0 0.00 0.00 0.00 82 1024.8
20200117200027 13 154 0.0 2.0 0.00 0.00 0.00 82 1024.7
20200117194531 12 83 0.0 2.0 0.00 0.00 0.00 83 1024.7
20200117193114 12 105 0.0 3.0 0.00 0.00 0.00 84 1024.6
20200117191535 12 352 0.0 2.0 0.00 0.00 0.00 84 1024.6
20200117190021 12 315 0.0 4.0 0.00 0.00 0.00 84 1024.3
20200117184537 12 329 0.0 1.0 0.00 0.00 0.00 85 1024.1
20200117183013 11 63 0.0 2.0 0.00 0.00 0.00 86 1023.9
20200117181510 11 278 0.0 3.0 0.00 0.00 0.00 87 1023.6
20200117180354 11 317 0.0 4.0 0.00 0.00 0.00 87 1023.5
20200117174823 10 84 0.0 2.0 0.00 0.00 0.00 87 1023.2
20200117173228 10 103 0.0 3.0 0.00 0.00 0.00 87 1022.8
20200117171658 10 339 0.0 3.0 0.00 0.00 0.00 87 1022.4
20200117170108 10 336 0.0 3.0 0.00 0.00 0.00 87 1022.1
20200117164654 10 98 0.0 3.0 0.00 0.00 0.00 87 1021.8
20200117163109 10 217 0.0 2.0 0.00 0.00 0.00 87 1021.6
20200117161646 10 236 0.0 3.0 0.00 0.00 0.00 87 1021.1
20200117160133 10 82 0.0 4.0 0.00 0.00 0.00 88 1020.8
20200117154606 10 100 0.0 6.0 0.00 0.00 0.00 88 1020.5
20200117153103 11 94 0.0 3.0 0.00 0.00 0.00 88 1020.0
20200117151618 11 316 0.0 2.0 0.00 0.00 0.00 89 1019.8
20200117150114 11 302 0.0 1.0 0.00 0.00 0.00 88 1019.6
20200117144553 11 359 0.0 3.0 0.00 0.00 0.00 89 1019.3
20200117143151 11 99 0.0 3.0 0.00 0.00 0.00 89 1019.1
20200117141556 11 307 0.0 3.0 0.00 0.00 0.00 88 1018.8
20200117140050 11 25 0.0 3.0 0.00 0.00 0.00 89 1018.5
20200117134524 11 321 0.0 4.0 0.00 0.00 0.00 89 1018.1
20200117133046 11 53 0.0 4.0 0.00 0.00 0.00 89 1017.7
20200117131513 11 85 0.0 4.0 0.00 0.00 0.00 89 1017.4
20200117130032 12 287 0.0 5.0 0.00 0.00 0.00 89 1017.2
20200117124503 12 300 0.0 5.0 0.00 0.00 0.00 89 1016.9
20200117123227 12 273 0.0 3.0 0.00 0.00 0.00 89 1016.4
20200117121631 11 101 0.0 4.0 0.00 0.00 0.00 89 1016.2
20200117120220 11 21 0.0 3.0 0.00 0.00 0.00 89 1016.0
20200117114724 11 77 0.0 2.0 0.00 0.00 0.00 89 1015.5
20200117113150 11 333 0.0 2.0 0.00 0.00 0.00 89 1015.3
20200117111628 11 289 0.0 3.0 0.00 0.00 0.00 89 1015.0
20200117110217 11 4 0.0 4.0 0.00 0.00 0.00 89 1014.9
20200117104628 11 314 0.0 4.0 0.00 0.00 0.00 90 1014.5
20200117103204 10 17 0.0 1.0 0.00 0.00 0.00 90 1014.2
20200117101657 10 75 0.0 2.0 0.00 0.00 0.00 90 1013.8
20200117100158 10 295 0.0 2.0 0.00 0.00 0.00 90 1013.3
20200117094639 10 275 0.0 3.0 0.00 0.00 0.00 90 1013.1
20200117093109 10 347 0.0 2.0 0.00 0.00 0.00 89 1012.8
20200117091608 9 290 0.0 3.0 0.00 0.00 0.00 89 1012.4
20200117090033 9 329 0.0 2.0 0.00 0.00 0.00 89 1012.2
20200117084530 9 72 0.0 1.0 0.00 0.00 0.00 89 1011.9
20200117083103 9 23 0.0 2.0 0.00 0.00 0.00 89 1011.7
20200117081612 9 101 0.0 3.0 0.00 0.00 0.00 89 1011.4
20200117080022 8 345 0.0 2.0 0.00 0.00 0.00 89 1011.3
20200117074517 8 271 0.0 1.0 0.00 0.00 0.00 89 1011.1
20200117073025 8 37 0.0 1.0 0.00 0.00 0.00 89 1010.8
20200117071518 8 218 0.0 1.0 0.00 0.00 0.00 89 1010.6
20200117070007 8 283 0.0 1.0 0.00 0.00 0.00 89 1010.4
20200117064839 8 25 0.0 2.0 0.00 0.00 0.00 89 1010.1
20200117063212 8 295 0.0 2.0 0.00 0.00 0.00 90 1009.9
20200117061907 8 15 0.0 2.0 0.00 0.00 0.00 90 1009.8
20200117060229 8 37 0.0 1.0 0.00 0.00 0.00 90 1009.6
20200117054929 7 325 0.0 1.0 0.00 0.00 0.00 90 1009.4
20200117053201 7 340 0.0 1.0 0.00 0.00 0.00 90 1009.1
20200117051705 7 302 0.0 1.0 0.00 0.00 0.00 90 1009.0
20200117050103 7 285 0.0 1.0 0.00 0.00 0.00 90 1008.9
20200117044931 7 104 0.0 1.0 0.00 0.00 0.00 89 1008.6
20200117043349 8 294 0.0 2.0 0.00 0.00 0.00 90 1008.5
20200117041638 8 326 0.0 1.0 0.00 0.00 0.00 90 1008.3
20200117040126 8 311 0.0 1.0 0.00 0.00 0.00 90 1008.2
20200117034628 8 89 0.0 1.0 0.00 0.00 0.00 90 1008.1
20200117033234 8 297 0.0 1.0 0.00 0.00 0.00 89 1008.0
20200117031618 8 232 0.0 3.0 0.00 0.00 0.00 89 1007.8
20200117030150 9 290 0.0 1.0 0.00 0.00 0.00 89 1007.6
20200117024644 9 301 0.0 1.0 0.00 0.00 0.00 89 1007.6
20200117023125 9 98 0.0 2.0 0.00 0.00 0.00 89 1007.4
20200117021656 9 108 0.0 1.0 0.00 0.00 0.00 89 1007.1
20200117020214 9 41 0.0 1.0 0.00 0.00 0.00 89 1006.9
20200117014737 10 66 0.0 1.0 0.00 0.00 0.00 89 1006.8
20200117013135 10 25 0.0 1.0 0.00 0.00 0.00 88 1006.7
20200117011800 10 97 0.0 2.0 0.00 0.00 0.00 89 1006.7
20200117010237 10 297 0.0 1.0 0.00 0.00 0.00 89 1006.6
20200117004625 10 81 0.0 0.0 0.00 0.00 0.00 88 1006.5
20200117003119 10 68 0.0 1.0 0.00 0.00 0.00 88 1006.3
20200117001617 10 91 0.0 1.0 0.00 0.00 0.00 88 1006.3
20200117000304 10 108 0.0 1.0 0.00 0.00 0.00 88 1006.2
20200116234618 10 300 0.0 2.0 0.00 0.00 0.00 88 1006.2
20200116233313 10 290 0.0 1.0 0.00 0.00 0.00 87 1006.0
20200116231555 10 47 0.0 1.0 0.00 0.00 0.00 87 1005.9
20200116230209 10 74 0.0 1.0 0.00 0.00 0.00 87 1006.0
20200116224726 10 113 0.0 1.0 0.00 0.00 0.00 87 1005.9